Location: Newark
(39.6172°N, 96.8533°W)
Time: 11:34:15
(UTC+00:00)

Envisat - Pass Details

Date: 31 January 2020
Orbit: 764 x 766 km, 98.1° (Epoch: 23 February)

Event Time Altitude Azimuth Distance (km) Brightness Sun altitude
Rises 12:30:50 0° 21° (NNE) 3,238 6.4 -12.9°
Reaches altitude 10° 12:33:18 10° 30° (NNE) 2,308 5.7 -12.4°
Maximum altitude 12:38:01 38° 97° (E) 1,165 4.7 -11.5°
Drops below altitude 10° 12:42:41 10° 165° (SSE) 2,292 5.9 -10.7°
Sets 12:45:08 0° 173° (S) 3,214 6.5 -10.2°
